Regional Weather Roundup
Issued by NWS San Angelo, TX

Home | Current Version | Previous Version | Text Only | Print | Product List | Glossary On
Versions: 1 2 3 4 5 6 7 8 9 10 11 12 13 14 15 16 17 18 19 20 21 22 23 24 25 26 27 28 29 30 31 32 33 34 35 36 37 38 39 40 41 42 43 44 45 46 47 48 49 50
000
ASUS44 KSJT 230102
RWRSJT
WEST CENTRAL TEXAS REGIONAL WEATHER ROUNDUP
NATIONAL WEATHER SERVICE SAN ANGELO TX
700 PM CST MON JAN 22 2018

NOTE: "FAIR" INDICATES FEW OR NO CLOUDS BELOW 12,000 FEET WITH NO
SIGNIFICANT WEATHER AND/OR OBSTRUCTIONS TO VISIBILITY.

TXZ049-054-064>066-071>073-076>078-098-099-113-114-127-128-139-140-
154-155-168>170-230200
...LOCATIONS ACROSS WEST CENTRAL TEXAS...

CITY           SKY/WX    TMP DP  RH WIND       PRES   REMARKS
SAN ANGELO     CLEAR     50  10  20 NW6       30.16R
ABILENE        CLEAR     48  12  23 W6        30.14R
DYESS AFB      CLEAR     47  12  24 W7        30.14R
JUNCTION       CLEAR     53  13  20 N8        30.16R
SWEETWATER     NOT AVBL
BROWNWOOD      PTCLDY    48  10  21 CALM      30.14R
COLEMAN        CLEAR     49  12  22 W5        30.15R
SONORA         NOT AVBL
OZONA          FAIR      46  10  23 N3        30.20R
BRADY          NOT AVBL
$$

TEXAS PANHANDLE/OKLAHOMA PANHANDLE

CITY           SKY/WX    TMP DP  RH WIND       PRES   REMARKS
AMARILLO       CLEAR     33  -2  22 N7        30.12R WCI  27
BORGER         CLEAR     42   3  19 N5        30.11S WCI  39
CANADIAN       CLEAR     39  11  32 NW9       30.10R WCI  33
DALHART        PTCLDY    37  -1  20 E3        30.11R
DUMAS          CLEAR     32  -2  23 N7        30.11R WCI  26
GUYMON         NOT AVBL
HEREFORD       CLEAR     37  -4  17 MISG      30.13R
PAMPA          NOT AVBL
PERRYTON       CLEAR     34  11  39 NW8       30.08R WCI  27
$$

SOUTHERN PANHANDLE/SOUTH PLAINS/ROLLING PLAINS

CITY           SKY/WX    TMP DP  RH WIND       PRES   REMARKS
LUBBOCK        PTCLDY    40  -1  18 NW7       30.14R WCI  35
SNYDER         CLEAR     47   6  18 NW7       30.16R
CHILDRESS      CLEAR     41   7  24 N3        30.11R
SEMINOLE       CLEAR     45   4  18 W5        30.18R
$$

PERMIAN BASIN

CITY           SKY/WX    TMP DP  RH WIND       PRES   REMARKS
MIDLAND        CLEAR     47   4  17 CALM      30.17R
ODESSA         CLEAR     50   2  14 CALM      30.17R
WINK           CLEAR     50   3  14 CALM      30.16S
$$

FAR WEST/SOUTHWEST MOUNTAINS/TRANS PECOS

CITY           SKY/WX    TMP DP  RH WIND       PRES   REMARKS
ALPINE         NOT AVBL
DRYDEN           N/A    N/A N/A N/A N8        30.14R
EL PASO        MOCLDY    47   8  20 E3        30.16S
FORT STOCKTON  CLEAR     45   5  19 N9        30.18R
GUADALUPE PASS MOCLDY    41   1  18 W8        30.19R WCI  36
MARFA          CLEAR     36  -3  19 NW8       30.19R WCI  30
PECOS          NOT AVBL
$$

DALLAS/FORT WORTH METROPLEX

CITY           SKY/WX    TMP DP  RH WIND       PRES   REMARKS
DFW AIRPORT    PTCLDY    55  21  26 NW13      30.07R
FTW MEACHAM    CLEAR     53  20  27 NW9       30.09R
DAL-EXECUTIVE  CLEAR     68  21  16 NW14      30.07R
GRAND PRAIRIE  CLEAR     55  19  23 W6        30.10R
ADDISON        NOT AVBL
MESQUITE       CLEAR     54  19  26 W9G16     30.08R
LANCASTER      CLEAR     54  20  27 NW14      30.09R
$$

NORTH CENTRAL TEXAS

CITY           SKY/WX    TMP DP  RH WIND       PRES   REMARKS
SHRMAN/DENISON NOT AVBL
GAINESVILLE    CLEAR     46  21  37 N5        30.10R
BRIDGEPORT     CLEAR     51  21  31 NW6       30.11R
DENTON         CLEAR     49  22  34 NW8       30.08R
WAXAHACHIE     CLEAR     52  24  33 NW5       30.10R
GRANBURY       CLEAR     50  17  27 W5        30.12R
$$

WESTERN NORTH TEXAS

CITY           SKY/WX    TMP DP  RH WIND       PRES   REMARKS
WICHITA FALLS  CLEAR     47  17  30 NW10      30.08R
VERNON         CLEAR     46   1  15 NW5       30.11R
BRECKENRIDGE   NOT AVBL
COMANCHE       CLEAR     49  15  26 W5        30.13R
$$

CENTRAL AND SOUTH CENTRAL TEXAS

CITY           SKY/WX    TMP DP  RH WIND       PRES   REMARKS
AUSTIN/BERGSTM PTCLDY    55  23  28 NW5       30.12R
WACO           CLEAR     50  20  30 NW8       30.11R
HILLSBORO      CLEAR     47  20  35 NW6       30.09R
TEMPLE         CLEAR     52  19  27 NW6       30.13R
KILLEEN-GRAY   CLEAR     54  15  21 W8        30.12R
FORT HOOD      CLEAR     51  16  25 NW5       30.09R
GEORGETOWN     CLEAR     53  21  28 W6        30.14R
LAGO VISTA     FAIR      54  21  27 NW7       30.13R
SAN MARCOS     CLEAR     52  20  28 N6        30.13R
NEW BRAUNFELS  CLEAR     49  21  33 N8        30.12R
RANDOLPH AFB   CLEAR     55  20  25 NW8       30.13R
SAN ANTONIO    PTCLDY    55  19  24 NW7       30.13R
STINSON        CLEAR     60  19  20 N6        30.11R
PLEASANTON     NOT AVBL
LA GRANGE      NOT AVBL
GIDDINGS       CLEAR     55  23  29 NW5       30.12R
$$

EAST TEXAS

CITY           SKY/WX    TMP DP  RH WIND       PRES   REMARKS
PARIS          CLEAR     49  28  44 W10       30.04R
CLARKSVILLE    NOT AVBL
TYLER          CLEAR     52  22  30 W7        30.06R
LONGVIEW       FAIR      51  27  39 W6        30.04R
PALESTINE      CLEAR     53  22  30 W6        30.08R
NACOGDOCHES    FAIR      51  24  34 NW7       30.06R
$$

TEXAS HILL COUNTRY AND EDWARDS PLATEAU

CITY           SKY/WX    TMP DP  RH WIND       PRES   REMARKS
LLANO          NOT AVBL
HORSESHOE BAY  FAIR      54  19  24 CALM      30.14R
KERRVILLE      CLEAR     47  13  26 N5        30.14R
FREDERICKSBRG  NOT AVBL
ROCKSPRINGS      N/A    N/A N/A N/A MISG        N/A
HONDO          CLEAR     52  15  23 N8        30.13R
UVALDE         CLEAR     55  18  23 N7        30.14R
DEL RIO        CLEAR     56  15  20 CALM      30.13R
$$

SOUTHEAST TEXAS

CITY           SKY/WX    TMP DP  RH WIND       PRES   REMARKS
COLLEGE STN    CLEAR     57  24  28 NW6       30.10R
CALDWELL       NOT AVBL
CROCKETT       FAIR      54  19  26 W3        30.10R
BRENHAM        NOT AVBL
HUNTSVILLE     FAIR      55  24  30 NW6       30.08R
CONROE         FAIR      46  35  65 CALM      30.08R
HOUSTON BUSH   FAIR      57  29  34 NW5       30.09R
HOUSTON HOBBY  FAIR      57  29  34 N9        30.08R
PERLAND        FAIR      55  32  41 NW3       30.10R
WHARTON        FAIR      53  29  40 NW6       30.11R
$$

THE UPPER TEXAS COAST

CITY           SKY/WX    TMP DP  RH WIND       PRES   REMARKS
ORANGE         FAIR      57  32  38 NW3       30.07R
PORT ARTHUR    FAIR      54  31  41 NW9       30.05R
GALVESTON      FAIR      60  35  39 NW10      30.08R
ANGLETON       FAIR      58  31  35 N8        30.09R
BAY CITY       FAIR      57  32  37 NW6       30.09R
$$

TEXAS COASTAL BEND, RIO GRANDE PLAINS DEEP SOUTH TEXAS

CITY           SKY/WX    TMP DP  RH WIND       PRES   REMARKS
VICTORIA       FAIR      52  28  39 N9        30.11R
BEEVILLE       FAIR      57  26  30 N6        30.11R
ROCKPORT       FAIR      60  29  30 N7        30.10R
PORT ARANSAS   NOT AVBL
PORT LAVACA    FAIR      55  27  34 N7        30.10R
CORPUS CHRISTI CLOUDY    60  31  33 N7        30.10R
KINGSVILLE NAS MOCLDY    59  29  31 NW7       30.10R
COTULLA        CLEAR     57  23  26 N7        30.12R
LAREDO         CLOUDY    58  27  30 N6        30.13R
BROWNSVILLE    FAIR      63  41  44 N6        30.10R
PORT ISABEL    FAIR      60  44  55 NE6       30.09R
HEBBRONVILLE   NOT AVBL
MCALLEN        FAIR      64  32  30 N6        30.11R
WESLACO        NOT AVBL
FALFURRIAS     CLOUDY    63  27  25 CALM      30.11R
EDINBURG       FAIR      62  26  25 N5        30.11R
$$



USA.gov is the U.S. government's official web portal to all federal, state and local government web resources and services.